CHH7381 ZJHK-ZBAA

Flight info

Callsign CHH7381
Flight time N/A
Altitude 33100
Route AGTEL W71 LH R339 BHY W159 IVPUB W120 ENKUS H145 JW W2 SJG W102 SHX W4 VADMO W56 DUGEB
Aircraft A339/M-SDE2E3FGILRWXY/LB2

Departure

Time 2026-05-08 06:00
Airport Haikou Meilan International Airport (ZJHK)

Arrival

Time N/A
Airport Beijing Capital International Airport (ZBAA)
Time Latitude Longitude Altitude Speed Heading
2026-05-08 05:46 19.94796 110.45409 90 ft 0 kts 44°
2026-05-08 05:51 19.94790 110.45403 90 ft 2 kts 45°
2026-05-08 05:51 19.94779 110.45391 91 ft 2 kts 44°
2026-05-08 05:51 19.94768 110.45380 90 ft 2 kts 44°
2026-05-08 05:51 19.94758 110.45369 90 ft 1 kts 44°
2026-05-08 05:52 19.94751 110.45362 91 ft 2 kts 41°
2026-05-08 05:52 19.94739 110.45352 91 ft 2 kts 28°
2026-05-08 05:52 19.94726 110.45346 91 ft 2 kts 18°
2026-05-08 05:52 19.94711 110.45342 91 ft 1 kts
2026-05-08 05:53 19.94706 110.45342 90 ft 0 kts
2026-05-08 05:55 19.94714 110.45342 90 ft 2 kts
2026-05-08 05:55 19.94736 110.45332 90 ft 4 kts 330°
2026-05-08 05:55 19.94777 110.45296 90 ft 10 kts 314°
2026-05-08 05:56 19.94831 110.45238 90 ft 11 kts 315°
2026-05-08 05:56 19.94889 110.45176 90 ft 11 kts 308°
2026-05-08 05:56 19.94902 110.45093 90 ft 12 kts 273°
2026-05-08 05:56 19.94905 110.45004 91 ft 8 kts 285°
2026-05-08 05:57 19.94929 110.44991 90 ft 2 kts
2026-05-08 05:57 19.94946 110.44986 90 ft 4 kts 333°
2026-05-08 05:57 19.94978 110.44957 90 ft 8 kts 311°
2026-05-08 05:57 19.95024 110.44901 90 ft 11 kts 310°
2026-05-08 05:58 19.95086 110.44829 90 ft 11 kts 323°
2026-05-08 05:58 19.95144 110.44822 90 ft 5 kts 359°
2026-05-08 05:58 19.95196 110.44819 90 ft 9 kts 359°
2026-05-08 05:58 19.95272 110.44820 90 ft 12 kts
2026-05-08 05:59 19.95352 110.44868 90 ft 11 kts 49°
2026-05-08 05:59 19.95371 110.44947 90 ft 8 kts 88°
2026-05-08 05:59 19.95371 110.44951 90 ft 1 kts 88°
2026-05-08 05:59 19.95373 110.45084 90 ft 44 kts 90°
2026-05-08 06:00 19.95375 110.45641 90 ft 104 kts 89°
2026-05-08 06:00 19.95378 110.46606 91 ft 153 kts 89°
2026-05-08 06:00 19.95349 110.47842 164 ft 185 kts 93°
2026-05-08 06:00 19.95394 110.49184 691 ft 179 kts 64°
2026-05-08 06:01 19.96233 110.50055 1341 ft 170 kts 13°
2026-05-08 06:01 19.97367 110.50087 2013 ft 162 kts 350°
2026-05-08 06:01 19.98069 110.49858 2386 ft 161 kts 339°
2026-05-08 06:01 19.99423 110.49226 3001 ft 160 kts 338°
2026-05-08 06:02 20.00456 110.48740 3360 ft 167 kts 338°
2026-05-08 06:02 20.01581 110.48225 3633 ft 181 kts 339°
2026-05-08 06:02 20.02792 110.47683 3910 ft 196 kts 339°
2026-05-08 06:02 20.04091 110.47111 4190 ft 211 kts 338°
2026-05-08 06:03 20.05521 110.46483 4478 ft 228 kts 338°
2026-05-08 06:03 20.07027 110.45821 4780 ft 244 kts 338°
2026-05-08 06:03 20.08652 110.45110 5238 ft 254 kts 339°
2026-05-08 06:03 20.10276 110.44399 5843 ft 256 kts 338°
2026-05-08 06:04 20.11934 110.43672 6452 ft 258 kts 338°
2026-05-08 06:04 20.13615 110.42936 7066 ft 260 kts 338°
2026-05-08 06:04 20.15285 110.42205 7667 ft 262 kts 338°
2026-05-08 06:04 20.17000 110.41457 8292 ft 265 kts 338°
2026-05-08 06:05 20.18694 110.40717 8896 ft 267 kts 337°
2026-05-08 06:05 20.20413 110.39962 9476 ft 270 kts 337°
2026-05-08 06:05 20.22163 110.39195 10067 ft 272 kts 337°
2026-05-08 06:05 20.23921 110.38426 10646 ft 274 kts 336°
2026-05-08 06:06 20.25724 110.37677 11217 ft 277 kts 340°
2026-05-08 06:06 20.27569 110.37027 11560 ft 289 kts 341°
2026-05-08 06:06 20.29555 110.36345 11818 ft 304 kts 341°
2026-05-08 06:06 20.31632 110.35637 12073 ft 319 kts 341°
2026-05-08 06:07 20.33805 110.34893 12321 ft 334 kts 341°
2026-05-08 06:07 20.36063 110.34120 12580 ft 348 kts 341°
2026-05-08 06:07 20.38406 110.33315 13028 ft 355 kts 341°
2026-05-08 06:07 20.40675 110.32534 13570 ft 358 kts 341°
2026-05-08 06:08 20.43115 110.31695 14148 ft 360 kts 341°
2026-05-08 06:08 20.45513 110.30872 14684 ft 363 kts 341°
2026-05-08 06:08 20.47943 110.30067 15215 ft 367 kts 345°
2026-05-08 06:08 20.50451 110.29583 15732 ft 371 kts 353°
2026-05-08 06:09 20.53050 110.29488 16254 ft 375 kts
2026-05-08 06:09 20.55661 110.29632 16773 ft 378 kts
2026-05-08 06:09 20.58315 110.29816 17296 ft 381 kts
2026-05-08 06:09 20.60977 110.30006 17806 ft 384 kts
2026-05-08 06:10 20.63651 110.30192 18330 ft 386 kts
2026-05-08 06:10 20.66346 110.30374 18852 ft 389 kts
2026-05-08 06:10 20.69067 110.30556 19366 ft 391 kts
2026-05-08 06:10 20.71783 110.30734 19853 ft 393 kts
2026-05-08 06:11 20.74516 110.30915 20326 ft 396 kts
2026-05-08 06:11 20.77267 110.31097 20802 ft 397 kts
2026-05-08 06:11 20.80032 110.31278 21261 ft 400 kts
2026-05-08 06:11 20.82831 110.31463 21695 ft 402 kts
2026-05-08 06:12 20.85642 110.31647 22130 ft 404 kts
2026-05-08 06:12 20.88467 110.31834 22559 ft 407 kts
2026-05-08 06:12 20.91295 110.32021 22984 ft 409 kts
2026-05-08 06:12 20.94101 110.32204 23390 ft 411 kts
2026-05-08 06:13 20.96993 110.32394 23805 ft 413 kts
2026-05-08 06:13 20.99881 110.32581 24211 ft 415 kts
2026-05-08 06:13 21.02785 110.32743 24596 ft 418 kts
2026-05-08 06:13 21.05689 110.32895 24979 ft 420 kts
2026-05-08 06:14 21.08594 110.32991 25348 ft 421 kts 356°
2026-05-08 06:14 21.11471 110.32330 25689 ft 422 kts 337°
2026-05-08 06:14 21.14014 110.30753 26079 ft 423 kts 320°
2026-05-08 06:14 21.16006 110.28444 26413 ft 425 kts 303°
2026-05-08 06:15 21.17454 110.25679 26765 ft 427 kts 298°
2026-05-08 06:15 21.18839 110.22886 27072 ft 430 kts 298°
2026-05-08 06:15 21.20245 110.20055 27390 ft 432 kts 298°
2026-05-08 06:15 21.21656 110.17230 27707 ft 435 kts 298°
2026-05-08 06:16 21.23090 110.14367 28012 ft 437 kts 298°
2026-05-08 06:16 21.24545 110.11465 28328 ft 440 kts 298°
2026-05-08 06:16 21.25981 110.08605 28649 ft 442 kts 298°
2026-05-08 06:16 21.27432 110.05716 28989 ft 443 kts 298°
2026-05-08 06:17 21.30365 109.99878 29660 ft 446 kts 298°
2026-05-08 06:17 21.31837 109.96948 29972 ft 448 kts 298°
2026-05-08 06:17 21.33308 109.94015 30295 ft 449 kts 298°
2026-05-08 06:18 21.34784 109.91071 30632 ft 450 kts 298°
2026-05-08 06:18 21.36271 109.88104 30924 ft 452 kts 298°
2026-05-08 06:18 21.37748 109.85154 31210 ft 454 kts 298°
2026-05-08 06:18 21.39241 109.82172 31610 ft 453 kts 298°
2026-05-08 06:19 21.40731 109.79192 31996 ft 453 kts 298°
2026-05-08 06:19 21.42220 109.76210 32299 ft 454 kts 298°
2026-05-08 06:19 21.43707 109.73232 32584 ft 456 kts 297°
2026-05-08 06:19 21.45192 109.70255 32920 ft 457 kts 298°
2026-05-08 06:20 21.46701 109.67233 33030 ft 457 kts 297°
2026-05-08 06:20 21.48191 109.64242 33032 ft 457 kts 298°
2026-05-08 06:20 21.51185 109.58228 33028 ft 456 kts 297°
2026-05-08 06:21 21.54295 109.52304 33026 ft 456 kts 304°
2026-05-08 06:21 21.58572 109.47276 33027 ft 459 kts 319°
2026-05-08 06:22 21.63988 109.43623 33024 ft 463 kts 334°
2026-05-08 06:22 21.70160 109.41645 33025 ft 467 kts 349°
2026-05-08 06:23 21.76599 109.40776 33024 ft 467 kts 352°
2026-05-08 06:23 21.83087 109.39973 33027 ft 467 kts 352°
2026-05-08 06:24 21.89572 109.39148 33027 ft 467 kts 351°
2026-05-08 06:24 21.96009 109.38316 33029 ft 467 kts 351°
2026-05-08 06:25 22.02467 109.37478 33030 ft 468 kts 351°
2026-05-08 06:25 22.08951 109.36639 33037 ft 468 kts 351°
2026-05-08 06:26 22.15444 109.35796 33041 ft 468 kts 351°
2026-05-08 06:26 22.21932 109.35026 33048 ft 469 kts 353°
2026-05-08 06:27 22.28471 109.34885 33057 ft 470 kts 359°
2026-05-08 06:27 22.35011 109.35520 33061 ft 473 kts
2026-05-08 06:28 22.41503 109.36744 33069 ft 474 kts
2026-05-08 06:28 22.48015 109.38041 33076 ft 476 kts
2026-05-08 06:29 22.54507 109.39325 33079 ft 476 kts
2026-05-08 06:29 22.61051 109.40615 33076 ft 476 kts
2026-05-08 06:30 22.67585 109.41908 33075 ft 476 kts
2026-05-08 06:30 22.74090 109.43192 33077 ft 477 kts
2026-05-08 06:31 22.80626 109.44479 33078 ft 477 kts
2026-05-08 06:31 22.87180 109.45775 33074 ft 477 kts
2026-05-08 06:32 22.93691 109.47063 33073 ft 477 kts
2026-05-08 06:32 23.00216 109.48354 33074 ft 478 kts
2026-05-08 06:33 23.06795 109.49661 33075 ft 479 kts
2026-05-08 06:33 23.13355 109.50968 33085 ft 477 kts
2026-05-08 06:34 23.19862 109.52260 33091 ft 476 kts
2026-05-08 06:34 23.26385 109.53558 33097 ft 476 kts
2026-05-08 06:35 23.32903 109.54857 33097 ft 476 kts
2026-05-08 06:35 23.39467 109.56165 33096 ft 477 kts
2026-05-08 06:36 23.45967 109.57463 33093 ft 477 kts
2026-05-08 06:36 23.52532 109.58777 33092 ft 476 kts
2026-05-08 06:37 23.59048 109.60084 33095 ft 476 kts
2026-05-08 06:37 23.65565 109.61389 33095 ft 476 kts
2026-05-08 06:38 23.72083 109.62691 33104 ft 475 kts
2026-05-08 06:38 23.78585 109.63990 33105 ft 475 kts
2026-05-08 06:39 23.85117 109.65299 33105 ft 476 kts
2026-05-08 06:39 23.91651 109.66612 33105 ft 476 kts
2026-05-08 06:40 23.98174 109.67924 33106 ft 477 kts
2026-05-08 06:40 24.04698 109.69237 33109 ft 476 kts
2026-05-08 06:41 24.11178 109.70541 33112 ft 476 kts
2026-05-08 06:41 24.17710 109.71860 33115 ft 475 kts
2026-05-08 06:42 24.24218 109.73174 33122 ft 475 kts
2026-05-08 06:42 24.30735 109.74490 33121 ft 476 kts
2026-05-08 06:43 24.37239 109.75806 33118 ft 476 kts
2026-05-08 06:43 24.43785 109.77134 33116 ft 476 kts
2026-05-08 06:44 24.50284 109.78454 33114 ft 476 kts
2026-05-08 06:44 24.56805 109.79779 33117 ft 476 kts
2026-05-08 06:45 24.63304 109.81310 33122 ft 480 kts
2026-05-08 06:45 24.69686 109.83613 33128 ft 486 kts 15°
2026-05-08 06:46 24.75849 109.86739 33137 ft 491 kts 22°
2026-05-08 06:46 24.81829 109.90301 33140 ft 490 kts 23°
2026-05-08 06:47 24.87842 109.93906 33138 ft 490 kts 22°
2026-05-08 06:47 24.93840 109.97405 33140 ft 487 kts 19°
2026-05-08 06:48 25.00081 110.00194 33140 ft 482 kts 12°
2026-05-08 06:48 25.06533 110.02055 33141 ft 476 kts
2026-05-08 06:49 25.13121 110.03030 33154 ft 470 kts 359°
2026-05-08 06:49 25.19635 110.03713 33156 ft 470 kts 359°
2026-05-08 06:50 25.26176 110.04412 33157 ft 470 kts 359°
2026-05-08 06:50 25.32690 110.04806 33162 ft 462 kts 349°
2026-05-08 06:51 25.38851 110.03442 33170 ft 447 kts 334°
2026-05-08 06:51 25.44325 110.00385 33178 ft 435 kts 320°
2026-05-08 06:52 25.48824 109.95976 33194 ft 429 kts 308°
2026-05-08 06:52 25.52895 109.91074 33194 ft 433 kts 307°
2026-05-08 06:53 25.56953 109.86151 33198 ft 433 kts 307°
2026-05-08 06:53 25.61005 109.81239 33199 ft 433 kts 307°
2026-05-08 06:54 25.65072 109.76305 33198 ft 431 kts 308°
2026-05-08 06:54 25.69115 109.71397 33200 ft 431 kts 308°
2026-05-08 06:55 25.73538 109.66814 33199 ft 437 kts 319°
2026-05-08 06:55 25.78890 109.63532 33207 ft 445 kts 332°
2026-05-08 06:56 25.84967 109.61784 33211 ft 459 kts 346°
2026-05-08 06:56 25.91426 109.61685 33225 ft 468 kts 355°
2026-05-08 06:57 25.97952 109.62070 33227 ft 469 kts 356°
2026-05-08 06:57 26.04505 109.62465 33229 ft 469 kts 356°
2026-05-08 06:58 26.10999 109.62843 33234 ft 468 kts 355°
2026-05-08 06:58 26.17576 109.63216 33236 ft 468 kts 355°
2026-05-08 06:59 26.24068 109.63586 33234 ft 468 kts 355°
2026-05-08 06:59 26.30621 109.63960 33238 ft 468 kts 355°
2026-05-08 07:00 26.37164 109.64333 33242 ft 468 kts 355°
2026-05-08 07:00 26.43679 109.64710 33248 ft 468 kts 355°
2026-05-08 07:01 26.50186 109.65092 33252 ft 467 kts 355°
2026-05-08 07:01 26.56687 109.65473 33255 ft 467 kts 355°
2026-05-08 07:02 26.63195 109.65857 33256 ft 466 kts 355°
2026-05-08 07:02 26.69660 109.66236 33251 ft 466 kts 355°
2026-05-08 07:03 26.76170 109.66621 33251 ft 466 kts 355°
2026-05-08 07:03 26.82646 109.67003 33251 ft 466 kts 355°
2026-05-08 07:04 26.89166 109.67387 33252 ft 466 kts 355°
2026-05-08 07:04 26.95654 109.67773 33257 ft 465 kts 355°
2026-05-08 07:05 27.02165 109.68159 33259 ft 464 kts 354°
2026-05-08 07:05 27.08657 109.68542 33259 ft 464 kts 354°
2026-05-08 07:06 27.15192 109.68926 33415 ft 473 kts 354°
2026-05-08 07:06 27.18481 109.69119 33701 ft 475 kts 354°
2026-05-08 07:06 27.21756 109.69316 34134 ft 473 kts 355°
2026-05-08 07:07 27.25057 109.69515 34605 ft 471 kts 354°
2026-05-08 07:07 27.28335 109.69716 35052 ft 469 kts 354°
2026-05-08 07:07 27.31583 109.69910 35250 ft 469 kts 354°
2026-05-08 07:07 27.34845 109.70103 35253 ft 471 kts 354°
2026-05-08 07:08 27.38163 109.70314 35443 ft 475 kts 355°
2026-05-08 07:08 27.41471 109.70551 35824 ft 474 kts 355°
2026-05-08 07:08 27.43336 109.70663 36057 ft 471 kts 353°
2026-05-08 07:08 27.45185 109.70715 36266 ft 468 kts 352°
2026-05-08 07:09 27.48433 109.70659 36613 ft 464 kts 349°
2026-05-08 07:09 27.51652 109.70520 36901 ft 463 kts 348°
2026-05-08 07:09 27.54876 109.70363 37162 ft 464 kts 348°
2026-05-08 07:09 27.58072 109.70226 37244 ft 464 kts 349°
2026-05-08 07:10 27.64552 109.69985 37255 ft 465 kts 349°
2026-05-08 07:10 27.71048 109.69747 37254 ft 464 kts 349°
2026-05-08 07:11 27.77482 109.69510 37250 ft 464 kts 349°
2026-05-08 07:11 27.83968 109.69268 37252 ft 463 kts 349°
2026-05-08 07:12 27.90418 109.69029 37254 ft 462 kts 348°
2026-05-08 07:12 27.96823 109.68789 37261 ft 462 kts 348°
2026-05-08 07:13 28.03263 109.68548 37272 ft 462 kts 348°
2026-05-08 07:13 28.09696 109.68314 37276 ft 462 kts 348°
2026-05-08 07:14 28.16131 109.68085 37278 ft 462 kts 348°
2026-05-08 07:14 28.22572 109.67849 37285 ft 462 kts 348°
2026-05-08 07:15 28.29001 109.67605 37282 ft 461 kts 348°
2026-05-08 07:15 28.35442 109.67361 37282 ft 461 kts 348°
2026-05-08 07:16 28.41819 109.67119 37284 ft 460 kts 348°
2026-05-08 07:16 28.48243 109.66877 37289 ft 460 kts 348°
2026-05-08 07:17 28.54647 109.66634 37291 ft 460 kts 348°
2026-05-08 07:17 28.61039 109.66391 37293 ft 461 kts 348°
2026-05-08 07:18 28.67434 109.66149 37293 ft 459 kts 348°
2026-05-08 07:18 28.73842 109.65894 37288 ft 461 kts 348°
2026-05-08 07:19 28.80247 109.65643 37293 ft 460 kts 347°
2026-05-08 07:19 28.86629 109.65391 37291 ft 460 kts 347°
2026-05-08 07:20 28.93022 109.65151 37295 ft 458 kts 347°
2026-05-08 07:20 28.99381 109.64924 37292 ft 457 kts 347°
2026-05-08 07:21 29.05739 109.64697 37296 ft 459 kts 347°
2026-05-08 07:21 29.12130 109.64468 37300 ft 458 kts 347°
2026-05-08 07:22 29.18477 109.64242 37306 ft 459 kts 347°
2026-05-08 07:22 29.24880 109.64011 37312 ft 459 kts 347°
2026-05-08 07:23 29.31259 109.63765 37314 ft 457 kts 347°
2026-05-08 07:23 29.37585 109.63512 37315 ft 457 kts 347°
2026-05-08 07:24 29.43958 109.63256 37320 ft 457 kts 347°
2026-05-08 07:24 29.50322 109.63004 37321 ft 459 kts 346°
2026-05-08 07:25 29.56671 109.62761 37326 ft 458 kts 346°
2026-05-08 07:26 29.66235 109.62400 37330 ft 459 kts 347°
2026-05-08 07:26 29.72625 109.62160 37330 ft 459 kts 346°
2026-05-08 07:27 29.78982 109.61920 37332 ft 459 kts 346°
2026-05-08 07:27 29.85385 109.61681 37338 ft 459 kts 346°
2026-05-08 07:28 29.91761 109.61438 37338 ft 459 kts 346°
2026-05-08 07:28 29.98114 109.61199 37338 ft 458 kts 346°